TimeEST,TemperatureF,Dew PointF,Humidity,Sea Level PressureIn,VisibilityMPH,Wind Direction,Wind SpeedMPH,Gust SpeedMPH,PrecipitationIn,Events,Conditions,WindDirDegrees,DateUTC
12:53 AM,30.0,25.0,82,30.29,7.0,Calm,Calm,-,N/A,,Clear,0,2013-01-09 05:53:00
1:53 AM,25.0,21.9,88,30.28,7.0,Calm,Calm,-,N/A,,Clear,0,2013-01-09 06:53:00
2:53 AM,23.0,19.9,88,30.28,6.0,ESE,3.5,-,N/A,,Clear,110,2013-01-09 07:53:00
3:53 AM,27.0,23.0,85,30.27,9.0,ESE,4.6,-,N/A,,Clear,120,2013-01-09 08:53:00
4:53 AM,28.0,23.0,81,30.26,10.0,SE,6.9,-,N/A,,Overcast,130,2013-01-09 09:53:00
5:53 AM,30.9,24.1,76,30.24,10.0,East,3.5,-,N/A,,Scattered Clouds,100,2013-01-09 10:53:00
6:53 AM,36.0,27.0,70,30.26,10.0,ESE,3.5,-,N/A,,Overcast,110,2013-01-09 11:53:00
7:53 AM,41.0,30.0,65,30.27,10.0,SSE,3.5,-,0.00,,Overcast,160,2013-01-09 12:53:00
8:53 AM,43.0,32.0,65,30.30,10.0,Variable,5.8,-,N/A,,Overcast,0,2013-01-09 13:53:00
9:53 AM,42.1,36.0,79,30.29,10.0,SW,5.8,-,0.04,Rain,Light Rain,220,2013-01-09 14:53:00
10:53 AM,42.1,37.0,82,30.30,10.0,Variable,6.9,-,0.00,,Mostly Cloudy,0,2013-01-09 15:53:00
11:53 AM,43.0,37.0,80,30.28,10.0,SW,8.1,-,N/A,,Scattered Clouds,220,2013-01-09 16:53:00
12:06 PM,42.8,37.4,81,30.26,10.0,Variable,4.6,-,N/A,,Mostly Cloudy,0,2013-01-09 17:06:00
12:13 PM,42.8,37.4,81,30.26,10.0,SW,6.9,-,N/A,,Mostly Cloudy,230,2013-01-09 17:13:00
1:53 PM,46.9,35.1,63,30.27,10.0,SW,8.1,17.3,N/A,,Clear,230,2013-01-09 18:53:00
2:53 PM,46.9,33.1,59,30.29,10.0,WSW,9.2,-,N/A,,Clear,240,2013-01-09 19:53:00
3:53 PM,48.0,30.0,50,30.31,10.0,WSW,10.4,17.3,N/A,,Clear,240,2013-01-09 20:53:00
4:53 PM,46.0,28.0,50,30.34,10.0,WSW,8.1,-,N/A,,Clear,250,2013-01-09 21:53:00
5:53 PM,45.0,28.0,52,30.37,10.0,WSW,5.8,-,N/A,,Clear,240,2013-01-09 22:53:00
6:53 PM,43.0,28.0,56,30.41,10.0,WSW,6.9,-,N/A,,Clear,250,2013-01-09 23:53:00
7:53 PM,42.1,28.0,58,30.43,10.0,West,5.8,-,N/A,,Clear,260,2013-01-10 00:53:00
8:53 PM,41.0,27.0,57,30.45,10.0,Calm,Calm,-,N/A,,Clear,0,2013-01-10 01:53:00
9:53 PM,39.9,27.0,60,30.47,10.0,WSW,3.5,-,N/A,,Clear,250,2013-01-10 02:53:00
10:53 PM,35.1,27.0,72,30.49,10.0,Calm,Calm,-,N/A,,Clear,0,2013-01-10 03:53:00
11:53 PM,33.1,26.1,75,30.53,10.0,East,3.5,-,N/A,,Clear,100,2013-01-10 04:53:00